Regional Weather Roundup
Issued by NWS

Home | Current Version | Previous Version | Graphics & Text | Print | Product List | Glossary On
Versions: 1 2 3 4 5 6 7 8 9 10 11 12 13 14 15 16 17 18 19 20 21 22 23 24 25 26 27 28 29 30 31 32 33 34 35 36 37 38 39 40 41 42 43 44 45 46 47 48 49 50
000
ASUS43 KDMX 211206
RWRIA

WEATHER ROUNDUP FOR IOWA
NATIONAL WEATHER SERVICE DES MOINES IA
700 AM CDT MON AUG 21 2017

NOTE: "FAIR" INDICATES FEW OR NO CLOUDS BELOW 12,000 FEET WITH NO
SIGNIFICANT WEATHER AND/OR OBSTRUCTIONS TO VISIBILITY.

* - THESE STATIONS ARE NOT NWS STATIONS...THUS NOT UNDER NWS
QUALITY CONTROL.  THEY ALSO DO NOT REPORT WEATHER SUCH
AS PRECIPITATION OR FOG.

IAZ001>003-012>014-020>022-031>034-043>046-211300-
   NORTHWEST IOWA

CITY           SKY/WX    TMP DP  RH WIND       PRES   REMARKS
CARROLL *      LGT RAIN  66  64  94 S10       30.04F
LE MARS *      CLOUDY   104 N/A N/A S9        29.98F
ORANGE CITY *  CLOUDY    70  70 100 S3        30.00R
SHELDON *      CLOUDY    68  66  94 SE8       29.98S FOG
SIOUX CITY     CLOUDY    69  65  86 S12       29.98F
6HR MIN TEMP:  67; 6HR MAX TEMP:  71; 6HR PCP: TRACE;

SPENCER        CLOUDY    67  65  93 S12       30.00F
6HR MIN TEMP:  67; 6HR MAX TEMP:  71; 6HR PCP:  0.08;

STORM LAKE *   CLOUDY    66  63  88 SE5G15    30.01F
$$

IAZ055>058-069>071-079>083-090>094-211300-
   SOUTHWEST IOWA

CITY           SKY/WX    TMP DP  RH WIND       PRES   REMARKS
ATLANTIC *     LGT RAIN  66  64  94 E18G28    30.05F
AUDUBON *      LGT RAIN  66  63  88 SE17G25   30.05F
CLARINDA *     CLOUDY    72  64  78 NE13      30.09R
COUNCIL BLFS * RAIN      68  68 100 E22G29    30.06R
CRESTON *      RAIN      66  64  94 NE10G20   30.15R
HARLAN  *      CLOUDY    68  64  88 S16       30.07S
LAMONI         CLOUDY    70  66  87 NE9       30.12R
6HR MIN TEMP:  69; 6HR MAX TEMP:  71;

RED OAK *      CLOUDY    68  66  94 E8        30.04F
SHENANDOAH *   CLOUDY    70  66  88 E10G17    30.05R
$$

IAZ047>049-059>061-072>074-084-211300-
   CENTRAL IOWA

CITY           SKY/WX    TMP DP  RH WIND       PRES   REMARKS
AMES           LGT RAIN  68  64  87 E9        30.08F
6HR MIN TEMP:  68; 6HR MAX TEMP:  72; 6HR PCP:  0.48;

ANKENY *       RAIN      68  64  88 NE7G14    30.12R
BOONE *        LGT RAIN  66  63  88 SE21G26   30.03F
CHARITON *     CLOUDY    68  64  88 N6        30.12R
DES MOINES     TSTM      69  65  86 NE6       30.14R FOG
6HR MIN TEMP:  68; 6HR MAX TEMP:  74; 6HR PCP:  0.97;

GRINNELL*      LGT RAIN  67  64  90 N13       30.11F
KNOXVILLE *    CLOUDY    68  64  88 E7        30.09R
MARSHALLTOWN   LGT RAIN  67  65  93 NW8       30.11F
6HR MIN TEMP:  67; 6HR MAX TEMP:  70; 6HR PCP:  0.49;

NEWTON *       CLOUDY    68  64  88 N14       30.10F
PELLA *        RAIN      67  65  94 NE7G16    30.07F
PERRY *        DRIZZLE   66  64  96 E13G18    30.06F
$$

IAZ004>006-015-016-023>025-035-036-211300-
   NORTH CENTRAL IOWA

CITY           SKY/WX    TMP DP  RH WIND       PRES   REMARKS
ALGONA *       CLOUDY    66  64  94 S10       30.00F
CLARION *      CLOUDY    68  63  83 SE21G35   29.96F
ESTHERVILLE    CLOUDY    66  65  96 S7        30.01S
6HR MIN TEMP:  66; 6HR MAX TEMP:  69; 6HR PCP: TRACE;

FORT DODGE *   CLOUDY    68  59  73 SE16G26   29.94F
FOREST CITY *    N/A     68  61  77 S8        30.01F
WEBSTER CITY * CLOUDY    68  61  77 SE25G32   29.93F
IOWA FALLS *   LGT RAIN  68  61  79 SE23G29   30.01F
$$

IAZ007>011-017>019-026>030-037>042-050>054-066-211300-
   NORTHEAST IOWA

CITY           SKY/WX    TMP DP  RH WIND       PRES   REMARKS
CEDAR RAPIDS   RAIN      68  67  96 N9        30.13F FOG
6HR MIN TEMP:  62; 6HR MAX TEMP:  70; 6HR PCP:  0.14;

CHARLES CITY * CLOUDY    70  61  73 S21G35    29.95F
CLINTON *      FOG       66  66 100 W8        30.11R VSB 1/4
DECORAH *      CLOUDY    68  64  88 SE3       30.03F
DUBUQUE        CLOUDY    67  66  97 W6        30.14R FOG
6HR MIN TEMP:  62; 6HR MAX TEMP:  67;

MONTICELLO *   CLOUDY    70  68  94 W6G14     30.12R
OELWEIN *      CLOUDY    68  66  94 SW25G36   30.06F
WATERLOO       LGT RAIN  66  63  90 W12       30.11R
6HR MIN TEMP:  65; 6HR MAX TEMP:  69; 6HR PCP:  0.09;

$$

IAZ064-065-067-068-078-211300-
   EAST CENTRAL IOWA

CITY           SKY/WX    TMP DP  RH WIND       PRES   REMARKS
DAVENPORT      CLOUDY    67  66  97 NW9G20    30.12R FOG
6HR MIN TEMP:  61; 6HR MAX TEMP:  67;

IOWA CITY      TSTM      71  69  93 N25G31    30.04F
6HR MIN TEMP:  68; 6HR MAX TEMP:  72; 6HR PCP:  0.50;

MT. PLEASANT * LGT RAIN  69  68  98 N10G16    30.12R
MUSCATINE *    LGT RAIN  72  66  83 N9G15     30.08F
QUAD CITIES    CLOUDY    70  67  90 W9        30.09R
6HR MIN TEMP:  65; 6HR MAX TEMP:  70;

$$

IAZ062-063-075>077-085>089-095>099-211300-
   SOUTHEAST IOWA

CITY           SKY/WX    TMP DP  RH WIND       PRES   REMARKS
BURLINGTON     CLOUDY    72  68  87 NW13G25   30.11R
6HR MIN TEMP:  65; 6HR MAX TEMP:  72;

FAIRFIELD *    CLOUDY    70  66  88 NE12      30.11R
FORT MADISON * CLOUDY    72  70  94 NW9G29    30.12R
KEOKUK *       CLOUDY    72  68  88 SW8       30.07R
OSKALOOSA *    LGT RAIN  67  65  96 E7        30.11F
CENTERVILLE *  CLOUDY    68  68 100 CALM      30.13R
OTTUMWA        LGT RAIN  69  68  96 N10       30.12R
6HR MIN TEMP:  69; 6HR MAX TEMP:  73; 6HR PCP:  0.03;

$$

ABBREVIATIONS USED IN REMARKS
   TC - TEMPERATURES IN CELSIUS
  WCI - WIND CHILL INDEX
   HX - HEAT INDEX
  VSB - VISIBILITY
$$




USA.gov is the U.S. government's official web portal to all federal, state and local government web resources and services.